Hourly Data Report for January 05, 2003

TORONTO CITY
ONTARIO

43°40'00.000" N
79°24'00.000" W
112.50 m
6158355
71508
XTO

Download Data

Hourly Data (January 2003)
Hourly Data Report for January 5, 2003
TIME
LST
Temp Definition
°C
Dew Point Definition
°C
Rel Hum Definition
%
Precip. Amount Definition
mm

Wind Dir Definition
10's deg

Wind Spd Definition
km/h
Visibility Definition
km
Stn Press Definition
kPa
Hmdx Definition


Wind Chill Definition


Weather Definition


00:00 -1.5 -4.1 82     0 LegendMM 100.25     LegendNANA
01:00
02:00
03:00 -2.1 -4.8 82     0 LegendMM 100.28     LegendNANA
04:00 -2.7 -5.1 84     0 LegendMM 100.28     LegendNANA
05:00 -2.5 -5.2 82     0 LegendMM 100.27     LegendNANA
06:00 -2.7 -5.9 79     0 LegendMM 100.29     LegendNANA
07:00 -2.7 -6.1 77     0 LegendMM 100.27     LegendNANA
08:00 -2.6 -6.2 76     0 LegendMM 100.32     LegendNANA
09:00 -2.6 -6.3 76     0 LegendMM 100.35     LegendNANA
10:00 -2.3 -6.2 75     0 LegendMM 100.38     LegendNANA
11:00 -2.0 -6.1 73     0 LegendMM 100.32     LegendNANA
12:00 -1.8 -5.4 76     0 LegendMM 100.26     LegendNANA
13:00 -1.6 -4.5 81     0 LegendMM 100.22     LegendNANA
14:00 -1.4 -4.3 81     0 LegendMM 100.19     LegendNANA
15:00 -1.2 -4.1 81     0 LegendMM 100.17     LegendNANA
16:00 -1.1 -4.0 81     0 LegendMM 100.17     LegendNANA
17:00 -1.0 -5.0 74     0 LegendMM 100.16     LegendNANA
18:00 -1.3 -4.6 78     0 LegendMM 100.22     LegendNANA
19:00 -1.2 -4.3 79     0 LegendMM 100.24     LegendNANA
20:00 -1.3 -4.1 81     0 LegendMM 100.25     LegendNANA
21:00
22:00 -1.9 -4.8 81     0 LegendMM 100.20     LegendNANA
23:00 -2.1 -5.0 80     0 LegendMM 100.13     LegendNANA

Notes on Data Quality.

Legend

  • E = Estimated
  • M = Missing
  • NA = Not Available*
  • [empty] = Indicates an unobserved value
Date modified: